DW1458 Foley AL US current weather conditions

sailwx.info

Wind from 102 at 0 knots gusting 6

Air temperature 20.6° C
Dewpoint 20.4° C

Last reported at 2019-Dec-10 09:46 UTC.
Time now 2019-Dec-10 10:51 UTC

Location: N 30°24' W 087°40'.
View on Google Maps.

See reports from other nearby stations

  
Tides and Currents Weather Stations Pressure Air Temp Water Temp Dewpoint Dewpoint Depression Visibility Wind Speed Wind Dir Waves Ship Positions
date/time (UTC)wind fromknots sea level pressurealtimeterstation pressurevisibilityair tempwater tempwave heightnotes
2019-Dec-10 09:46 102 0 gusting 6 20.6
2019-Dec-10 09:16 138 20.6
2019-Dec-10 08:46 149 20.0
2019-Dec-10 08:30 124 20.0
2019-Dec-10 08:16 123 20.0
2019-Dec-10 08:00 071 20.0
2019-Dec-10 07:46 149 20.0
2019-Dec-10 07:30 134 20.0
2019-Dec-10 07:17 162 20.0
2019-Dec-10 07:00 129 20.0
2019-Dec-10 06:47 146 20.0
2019-Dec-10 06:30 127 20.0
2019-Dec-10 06:17 290 20.0
2019-Dec-10 06:00 131 19.4
2019-Dec-10 05:47 131 19.4
2019-Dec-10 05:31 131 19.4
2019-Dec-10 05:01 129 19.4
2019-Dec-10 04:31 130 19.4
2019-Dec-10 04:01 129 19.4
2019-Dec-10 03:32 120 19.4
2019-Dec-10 03:01 119 20.0
2019-Dec-10 02:31 136 20.0
2019-Dec-10 02:00 147 20.0
2019-Dec-10 01:30 115 20.0
2019-Dec-10 01:00 138 20.0
2019-Dec-10 00:31 132 20.6
2019-Dec-10 00:00 121 0 gusting 2 20.6
2019-Dec-09 23:30 162 0 gusting 2 20.6
2019-Dec-09 23:17 139 0 gusting 3 20.6
2019-Dec-09 23:01 101 0 gusting 2 21.1
2019-Dec-09 22:47 131 1 gusting 6 21.1
2019-Dec-09 22:30 122 1 gusting 4 21.1
2019-Dec-09 22:01 139 1 gusting 5 21.7
2019-Dec-09 21:31 113 1 gusting 6 22.2
2019-Dec-09 21:15 177 0 gusting 6 22.8
2019-Dec-09 21:02 131 2 gusting 10 22.8
2019-Dec-09 20:45 148 1 gusting 5 23.3
2019-Dec-09 20:31 156 23.3
2019-Dec-09 20:15 149 1 gusting 4 23.3
2019-Dec-09 20:02 255 0 gusting 4 23.3
2019-Dec-09 19:46 302 0 gusting 3 23.3
2019-Dec-09 19:32 040 0 gusting 4 23.3
2019-Dec-09 19:15 280 23.3
2019-Dec-09 19:01 283 1 gusting 7 23.3
2019-Dec-09 18:45 132 0 gusting 8 23.3
2019-Dec-09 18:16 321 2 gusting 12 23.3
2019-Dec-09 17:46 149 0 gusting 7 23.3
2019-Dec-09 17:15 019 1 gusting 6 22.2
2019-Dec-09 17:01 250 2 gusting 10 22.2
2019-Dec-09 16:45 300 3 gusting 9 21.7
2019-Dec-09 16:31 308 0 gusting 4 21.7
2019-Dec-09 16:15 210 0 gusting 5 21.1
2019-Dec-09 16:02 129 0 gusting 5 20.6
2019-Dec-09 15:45 139 1 gusting 5 20.6
2019-Dec-09 15:31 132 20.0
2019-Dec-09 15:15 176 0 gusting 5 18.9
2019-Dec-09 15:01 132 0 gusting 3 18.3
2019-Dec-09 14:31 105 17.2
2019-Dec-09 14:01 126 15.6
2019-Dec-09 13:30 122 13.9
2019-Dec-09 13:01 123 13.3
2019-Dec-09 12:31 122 13.9
2019-Dec-09 12:15 122 13.9
2019-Dec-09 12:01 123 13.9
2019-Dec-09 11:31 122 13.9
2019-Dec-09 11:01 123 14.4
2019-Dec-09 10:45 122 15.0
2019-Dec-09 10:15 123 15.6
2019-Dec-09 10:01 122 16.1
2019-Dec-09 09:45 202 16.7
2019-Dec-09 09:31 110 16.7
2019-Dec-09 09:15 281 16.7
2019-Dec-09 09:02 300 16.7
2019-Dec-09 08:45 131 16.7
2019-Dec-09 08:31 131 17.2
2019-Dec-09 08:15 129 17.2
2019-Dec-09 08:01 129 17.2
2019-Dec-09 07:45 143 17.2
2019-Dec-09 07:31 156 17.2
2019-Dec-09 07:15 164 17.2
2019-Dec-09 07:02 278 17.2
2019-Dec-09 06:31 186 17.8
2019-Dec-09 06:15 278 17.2
2019-Dec-09 06:01 136 17.2
2019-Dec-09 05:45 134 17.8
2019-Dec-09 05:32 136 17.8
2019-Dec-09 05:15 131 18.3
2019-Dec-09 05:02 149 18.3
2019-Dec-09 04:45 149 18.3
2019-Dec-09 04:31 149 18.3
2019-Dec-09 04:15 145 17.8
2019-Dec-09 04:02 146 17.8
2019-Dec-09 03:45 129 17.8
2019-Dec-09 03:15 130 17.8
2019-Dec-09 03:01 129 17.8
2019-Dec-09 02:45 128 18.3
2019-Dec-09 02:16 132 18.3
2019-Dec-09 01:46 123 18.3
2019-Dec-09 01:30 126 18.3
2019-Dec-09 01:16 126 18.3
2019-Dec-09 00:46 071 0 gusting 2 18.3
2019-Dec-09 00:16 108 18.3
2019-Dec-08 23:46 205 18.9
2019-Dec-08 23:16 124 2 gusting 6 18.9
2019-Dec-08 22:46 115 2 gusting 7 18.9
2019-Dec-08 22:16 127 18.3
2019-Dec-08 21:46 228 17.8
2019-Dec-08 21:31 131 17.8
2019-Dec-08 21:16 109 17.8
2019-Dec-08 21:01 333 17.8
2019-Dec-08 20:45 139 17.8
2019-Dec-08 20:15 132 2 gusting 8 18.3
2019-Dec-08 20:00 127 1 gusting 6 18.3
2019-Dec-08 19:46 131 2 gusting 11 18.3
2019-Dec-08 19:16 126 1 gusting 9 17.8
2019-Dec-08 18:45 146 1 gusting 8 17.8
2019-Dec-08 18:30 143 1 gusting 7 17.2
2019-Dec-08 18:16 091 0 gusting 6 17.2
2019-Dec-08 17:46 105 0 gusting 9 17.8
2019-Dec-08 17:16 163 2 gusting 10 18.3
2019-Dec-08 17:00 136 0 gusting 10 18.3
2019-Dec-08 16:46 095 5 gusting 13 18.3
2019-Dec-08 16:30 076 2 gusting 9 18.3
2019-Dec-08 16:16 139 3 gusting 9 17.8
2019-Dec-08 16:00 126 2 gusting 8 17.8
2019-Dec-08 15:47 124 3 gusting 9 17.8
2019-Dec-08 15:30 117 1 gusting 13 18.3
2019-Dec-08 15:16 142 4 gusting 9 18.3
2019-Dec-08 15:00 115 3 gusting 10 17.8
2019-Dec-08 14:30 149 16.1
2019-Dec-08 14:00 287 14.4
2019-Dec-08 13:31 321 12.8
2019-Dec-08 13:01 321 12.2
2019-Dec-08 12:31 300 11.7
2019-Dec-08 12:15 078 11.7
2019-Dec-08 12:01 037 11.7
2019-Dec-08 11:45 330 11.7
2019-Dec-08 11:31 335 11.7
2019-Dec-08 11:15 009 11.7
2019-Dec-08 11:02 348 11.7
2019-Dec-08 10:45 359 11.7
2019-Dec-08 10:31 319 12.2
2019-Dec-08 10:16 005 12.2